• Em Portugal
  • Lista de países
  • Para 7 dias
  • Temperatura da água
  • Mapas de satélite
  • Mapa do tempo
  • Widgets de tempo
  • user-avatar
    Iniciar Sessão

    Previsão horária em Canillo

    Hoje, 19 Outubro, Sexta-feira

    Tempo Temperatura Precipitação Vento Pressão Humidade
    00:00 +7°C° 0 mm 2 m/s 618 mmHg 92%
    01:00 +7°C° 0 mm 2 m/s 618 mmHg 92%
    02:00 +7°C° 0 mm 2 m/s 618 mmHg 91%
    03:00 +7°C° 0 mm 2 m/s 618 mmHg 91%
    04:00 +6°C° 0 mm 2 m/s 618 mmHg 91%
    05:00 +6°C° 0 mm 2 m/s 618 mmHg 90%
    06:00 +6°C° 0 mm 2 m/s 618 mmHg 90%
    07:00 +7°C° 0 mm 2 m/s 619 mmHg 86%
    08:00 +10°C° 0 mm 1 m/s 620 mmHg 83%
    09:00 +11°C° 0 mm 1 m/s 621 mmHg 79%
    10:00 +12°C° 0.1 mm 2 m/s 621 mmHg 76%
    11:00 +12°C° 0.1 mm 2 m/s 622 mmHg 73%
    12:00 +13°C° 0.1 mm 2 m/s 622 mmHg 70%
    13:00 +12°C° 1.5 mm 2 m/s 621 mmHg 75%
    14:00 +12°C° 1.5 mm 2 m/s 621 mmHg 80%
    15:00 +10°C° 1.5 mm 2 m/s 620 mmHg 84%
    16:00 +10°C° 2.2 mm 1 m/s 620 mmHg 87%
    17:00 +10°C° 2.2 mm 1 m/s 620 mmHg 89%
    18:00 +9°C° 2.2 mm 1 m/s 620 mmHg 91%
    19:00 +9°C° 0.9 mm 1 m/s 621 mmHg 91%
    20:00 +9°C° 0.9 mm 1 m/s 621 mmHg 91%
    21:00 +8°C° 0.9 mm 1 m/s 621 mmHg 91%
    22:00 +8°C° 0.8 mm 1 m/s 621 mmHg 91%
    23:00 +8°C° 0.8 mm 1 m/s 621 mmHg 91%

    Amanhã, 20 Outubro, Sábado

    Tempo Temperatura Precipitação Vento Pressão Humidade
    00:00 +8°C° 0.8 mm 1 m/s 621 mmHg 91%
    01:00 +8°C° 0.3 mm 1 m/s 621 mmHg 91%
    02:00 +8°C° 0.3 mm 1 m/s 621 mmHg 91%
    03:00 +8°C° 0.3 mm 1 m/s 621 mmHg 91%
    04:00 +8°C° 0.1 mm 1 m/s 621 mmHg 90%
    05:00 +7°C° 0.1 mm 1 m/s 622 mmHg 90%
    06:00 +7°C° 0.1 mm 1 m/s 622 mmHg 90%
    07:00 +9°C° 0.1 mm 1 m/s 623 mmHg 86%
    08:00 +10°C° 0.1 mm 1 m/s 624 mmHg 82%
    09:00 +11°C° 0.1 mm 1 m/s 624 mmHg 78%
    10:00 +12°C° 0.2 mm 1 m/s 625 mmHg 74%
    11:00 +13°C° 0.2 mm 1 m/s 625 mmHg 70%
    12:00 +14°C° 0.2 mm 1 m/s 626 mmHg 66%
    13:00 +14°C° 0.6 mm 1 m/s 625 mmHg 68%
    14:00 +13°C° 0.6 mm 1 m/s 625 mmHg 70%
    15:00 +13°C° 0.6 mm 1 m/s 625 mmHg 72%
    16:00 +12°C° 0.4 mm 1 m/s 624 mmHg 78%
    17:00 +9°C° 0.4 mm 0 m/s 624 mmHg 83%
    18:00 +8°C° 0.4 mm 0 m/s 623 mmHg 89%
    19:00 +8°C° 0.5 mm 0 m/s 623 mmHg 89%
    20:00 +9°C° 0.5 mm 1 m/s 624 mmHg 89%
    21:00 +8°C° 0.5 mm 1 m/s 624 mmHg 89%
    22:00 +8°C° 0.3 mm 1 m/s 624 mmHg 89%
    23:00 +8°C° 0.3 mm 1 m/s 624 mmHg 88%

    Depois de amanhã, 21 Outubro, Domingo

    Tempo Temperatura Precipitação Vento Pressão Humidade
    00:00 +8°C° 0.3 mm 1 m/s 623 mmHg 88%
    01:00 +8°C° 0 mm 1 m/s 623 mmHg 87%
    02:00 +7°C° 0 mm 1 m/s 623 mmHg 86%
    03:00 +7°C° 0 mm 1 m/s 623 mmHg 86%
    04:00 +7°C° 0 mm 1 m/s 622 mmHg 85%
    05:00 +7°C° 0 mm 1 m/s 622 mmHg 85%
    06:00 +7°C° 0 mm 1 m/s 622 mmHg 85%
    07:00 +9°C° 0 mm 1 m/s 623 mmHg 78%
    08:00 +10°C° 0 mm 0 m/s 624 mmHg 72%
    09:00 +12°C° 0 mm 0 m/s 625 mmHg 66%
    10:00 +13°C° 0 mm 0 m/s 626 mmHg 62%
    11:00 +15°C° 0 mm 1 m/s 626 mmHg 59%
    12:00 +16°C° 0 mm 1 m/s 626 mmHg 55%
    13:00 +15°C° 0.2 mm 1 m/s 626 mmHg 59%
    14:00 +14°C° 0.2 mm 1 m/s 625 mmHg 62%
    15:00 +14°C° 0.2 mm 1 m/s 624 mmHg 65%
    16:00 +12°C° 0 mm 1 m/s 624 mmHg 72%
    17:00 +11°C° 0 mm 1 m/s 623 mmHg 78%
    18:00 +9°C° 0 mm 1 m/s 622 mmHg 85%
    19:00 +9°C° 0 mm 1 m/s 622 mmHg 85%
    20:00 +8°C° 0 mm 1 m/s 622 mmHg 86%
    21:00 +8°C° 0 mm 1 m/s 622 mmHg 87%
    22:00 +6°C° 0 mm 2 m/s 622 mmHg 85%
    23:00 +6°C° 0 mm 2 m/s 622 mmHg 83%

    22 Outubro, Segunda-feira

    Tempo Temperatura Precipitação Vento Pressão Humidade
    00:00 +6°C° 0 mm 2 m/s 621 mmHg 81%
    01:00 +6°C° 0 mm 2 m/s 621 mmHg 78%
    02:00 +5°C° 0 mm 2 m/s 621 mmHg 76%
    03:00 +5°C° 0 mm 2 m/s 621 mmHg 73%
    04:00 +5°C° 0 mm 2 m/s 621 mmHg 73%
    05:00 +5°C° 0 mm 2 m/s 621 mmHg 73%
    06:00 +4°C° 0 mm 2 m/s 620 mmHg 73%
    07:00 +6°C° 0 mm 2 m/s 622 mmHg 67%
    08:00 +8°C° 0 mm 2 m/s 623 mmHg 62%
    09:00 +10°C° 0 mm 2 m/s 624 mmHg 56%
    10:00 +12°C° 0 mm 2 m/s 624 mmHg 51%
    11:00 +13°C° 0 mm 3 m/s 625 mmHg 47%
    12:00 +14°C° 0 mm 3 m/s 625 mmHg 42%
    13:00 +13°C° 0 mm 3 m/s 625 mmHg 44%
    14:00 +13°C° 0 mm 3 m/s 625 mmHg 47%
    15:00 +12°C° 0 mm 3 m/s 624 mmHg 50%
    16:00 +10°C° 0 mm 3 m/s 624 mmHg 59%
    17:00 +8°C° 0 mm 2 m/s 623 mmHg 69%
    18:00 +6°C° 0 mm 2 m/s 623 mmHg 78%
    19:00 +5°C° 0 mm 2 m/s 623 mmHg 76%
    20:00 +5°C° 0 mm 2 m/s 623 mmHg 74%
    21:00 +4°C° 0 mm 2 m/s 623 mmHg 72%
    22:00 +4°C° 0 mm 2 m/s 623 mmHg 71%
    23:00 +4°C° 0 mm 2 m/s 623 mmHg 70%

    23 Outubro, Terça-feira

    Tempo Temperatura Precipitação Vento Pressão Humidade
    00:00 +2°C° 0 mm 3 m/s 623 mmHg 69%
    01:00 +2°C° 0 mm 3 m/s 623 mmHg 69%
    02:00 +2°C° 0 mm 3 m/s 623 mmHg 69%
    03:00 +1°C° 0 mm 3 m/s 623 mmHg 70%
    04:00 +1°C° 0 mm 3 m/s 622 mmHg 69%
    05:00 +1°C° 0 mm 3 m/s 622 mmHg 69%
    06:00 0°C° 0 mm 3 m/s 622 mmHg 68%
    07:00 +2°C° 0 mm 3 m/s 623 mmHg 62%
    08:00 +4°C° 0 mm 3 m/s 624 mmHg 56%
    09:00 +7°C° 0 mm 3 m/s 624 mmHg 49%
    10:00 +8°C° 0 mm 3 m/s 625 mmHg 47%
    11:00 +8°C° 0 mm 4 m/s 625 mmHg 44%
    12:00 +10°C° 0 mm 4 m/s 625 mmHg 42%
    13:00 +8°C° 0 mm 4 m/s 624 mmHg 44%
    14:00 +8°C° 0 mm 4 m/s 624 mmHg 46%
    15:00 +8°C° 0 mm 4 m/s 623 mmHg 48%
    16:00 +6°C° 0 mm 4 m/s 623 mmHg 57%
    17:00 +4°C° 0 mm 3 m/s 622 mmHg 66%
    18:00 +2°C° 0 mm 3 m/s 622 mmHg 75%
    19:00 +1°C° 0 mm 3 m/s 622 mmHg 74%
    20:00 +1°C° 0 mm 3 m/s 622 mmHg 74%
    21:00 0°C° 0 mm 3 m/s 622 mmHg 73%
    22:00 0°C° 0 mm 3 m/s 622 mmHg 71%
    23:00 0°C° 0 mm 3 m/s 622 mmHg 70%

    24 Outubro, Quarta-feira

    Tempo Temperatura Precipitação Vento Pressão Humidade
    00:00 0°C° 0 mm 3 m/s 622 mmHg 69%
    01:00 0°C° 0 mm 3 m/s 622 mmHg 67%
    02:00 0°C° 0 mm 3 m/s 622 mmHg 66%
    03:00 0°C° 0 mm 3 m/s 622 mmHg 65%
    04:00 -1°C° 0 mm 3 m/s 622 mmHg 64%
    05:00 -1°C° 0 mm 3 m/s 622 mmHg 64%
    06:00 -1°C° 0 mm 3 m/s 622 mmHg 64%
    07:00 +1°C° 0 mm 3 m/s 623 mmHg 59%
    08:00 +3°C° 0 mm 3 m/s 624 mmHg 54%
    09:00 +6°C° 0 mm 2 m/s 625 mmHg 49%
    10:00 +8°C° 0 mm 3 m/s 625 mmHg 47%
    11:00 +9°C° 0 mm 3 m/s 626 mmHg 45%
    12:00 +10°C° 0 mm 3 m/s 626 mmHg 43%
    13:00 +10°C° 0 mm 3 m/s 625 mmHg 46%
    14:00 +10°C° 0 mm 3 m/s 625 mmHg 49%
    15:00 +10°C° 0 mm 3 m/s 625 mmHg 52%
    16:00 +8°C° 0 mm 3 m/s 624 mmHg 59%
    17:00 +5°C° 0 mm 3 m/s 623 mmHg 66%
    18:00 +3°C° 0 mm 3 m/s 623 mmHg 73%
    19:00 +3°C° 0 mm 3 m/s 623 mmHg 73%
    20:00 +3°C° 0 mm 3 m/s 623 mmHg 73%
    21:00 +3°C° 0 mm 3 m/s 623 mmHg 73%
    22:00 +3°C° 0 mm 3 m/s 622 mmHg 73%
    23:00 +3°C° 0 mm 3 m/s 622 mmHg 73%
    Mostrar mais